| time (UTC) | temp C | wind direction | speed KPH | gust KPH | rain 1hr cm | rain 24hr cm | rain mn cm | humidity % | barometer mb |
| 20260505152732 | 17 | 199 | 3.2 | 3.2 | 0.00 | 0.00 | 0.00 | 75 | 1022.1 |
| 20260505151231 | 17 | 204 | 0.0 | 1.6 | 0.00 | 0.00 | 0.00 | 75 | 1022.3 |
| 20260505124231 | 17 | 192 | 3.2 | 8.0 | 0.00 | 0.00 | 0.00 | 66 | 1022.0 |
| 20260505122733 | 17 | 180 | 4.8 | 12.9 | 0.00 | 0.00 | 0.00 | 65 | 1022.1 |
| 20260505121231 | 17 | 188 | 8.0 | 11.3 | 0.00 | 0.00 | 0.00 | 65 | 1022.0 |
| 20260505115732 | 17 | 192 | 9.7 | 14.5 | 0.00 | 0.00 | 0.00 | 64 | 1022.1 |
| 20260505114232 | 17 | 182 | 9.7 | 11.3 | 0.00 | 0.00 | 0.00 | 63 | 1022.1 |
| 20260505112731 | 17 | 181 | 8.0 | 12.9 | 0.00 | 0.00 | 0.00 | 65 | 1022.0 |
| 20260505111231 | 17 | 201 | 3.2 | 12.9 | 0.00 | 0.00 | 0.00 | 64 | 1021.9 |
| 20260505101231 | 17 | 166 | 9.7 | 12.9 | 0.00 | 0.00 | 0.00 | 63 | 1021.4 |
| 20260505095732 | 17 | 186 | 8.0 | 14.5 | 0.00 | 0.00 | 0.00 | 60 | 1021.1 |
| 20260505094232 | 17 | 187 | 11.3 | 14.5 | 0.00 | 0.00 | 0.00 | 58 | 1021.0 |
| 20260505092731 | 18 | 172 | 11.3 | 25.7 | 0.00 | 0.00 | 0.00 | 57 | 1020.9 |
| 20260505091232 | 18 | 175 | 8.0 | 16.1 | 0.00 | 0.00 | 0.00 | 56 | 1020.6 |
| 20260505085732 | 18 | 174 | 11.3 | 14.5 | 0.00 | 0.00 | 0.00 | 57 | 1020.5 |
| 20260505084231 | 19 | 206 | 9.7 | 14.5 | 0.00 | 0.00 | 0.00 | 57 | 1020.2 |
| 20260505082732 | 20 | 173 | 4.8 | 16.1 | 0.00 | 0.00 | 0.00 | 56 | 1020.2 |
| 20260505081232 | 20 | 182 | 11.3 | 19.3 | 0.00 | 0.00 | 0.00 | 56 | 1020.1 |
| 20260505075731 | 20 | 211 | 11.3 | 12.9 | 0.00 | 0.00 | 0.00 | 54 | 1020.0 |
| 20260505074232 | 21 | 204 | 9.7 | 12.9 | 0.00 | 0.00 | 0.00 | 49 | 1019.7 |
| 20260505072732 | 21 | 222 | 8.0 | 14.5 | 0.00 | 0.00 | 0.00 | 48 | 1019.5 |
| 20260505071231 | 22 | 205 | 9.7 | 19.3 | 0.00 | 0.00 | 0.00 | 45 | 1019.3 |
| 20260505065732 | 22 | 196 | 11.3 | 16.1 | 0.00 | 0.00 | 0.00 | 48 | 1019.2 |
| 20260505064232 | 22 | 168 | 11.3 | 22.5 | 0.00 | 0.00 | 0.00 | 45 | 1019.2 |
| 20260505062733 | 22 | 192 | 9.7 | 19.3 | 0.00 | 0.00 | 0.00 | 41 | 1019.0 |
| 20260505061232 | 22 | 198 | 8.0 | 16.1 | 0.00 | 0.00 | 0.00 | 36 | 1018.9 |
| 20260505055731 | 23 | 199 | 8.0 | 9.7 | 0.00 | 0.00 | 0.00 | 37 | 1018.8 |
| 20260505054232 | 23 | 160 | 8.0 | 19.3 | 0.00 | 0.00 | 0.00 | 34 | 1018.8 |
| 20260505052732 | 25 | 180 | 4.8 | 11.3 | 0.00 | 0.00 | 0.00 | 31 | 1018.7 |
| 20260505051232 | 25 | 304 | 1.6 | 3.2 | 0.00 | 0.00 | 0.00 | 30 | 1018.8 |
| 20260505041233 | 24 | 153 | 1.6 | 3.2 | 0.00 | 0.00 | 0.00 | 25 | 1019.0 |
| 20260505035731 | 24 | 7 | 1.6 | 8.0 | 0.00 | 0.00 | 0.00 | 25 | 1018.9 |
| 20260505034232 | 23 | 327 | 3.2 | 4.8 | 0.00 | 0.00 | 0.00 | 26 | 1018.9 |
| 20260505032733 | 23 | 16 | 3.2 | 3.2 | 0.00 | 0.00 | 0.00 | 27 | 1018.9 |
| 20260505031231 | 22 | 6 | 1.6 | 4.8 | 0.00 | 0.00 | 0.00 | 27 | 1019.0 |
| 20260505025732 | 22 | 32 | 11.3 | 20.9 | 0.00 | 0.00 | 0.00 | 28 | 1019.0 |
| 20260505024232 | 22 | 29 | 11.3 | 19.3 | 0.00 | 0.00 | 0.00 | 30 | 1019.0 |
| 20260505022733 | 21 | 330 | 3.2 | 1.6 | 0.00 | 0.00 | 0.00 | 34 | 1019.1 |
| 20260505021231 | 21 | 30 | 9.7 | 19.3 | 0.00 | 0.00 | 0.00 | 33 | 1019.1 |
| 20260505015732 | 21 | 18 | 9.7 | 12.9 | 0.00 | 0.00 | 0.00 | 35 | 1019.3 |
| 20260505014232 | 20 | 13 | 11.3 | 19.3 | 0.00 | 0.00 | 0.00 | 35 | 1019.2 |
| 20260505012732 | 20 | 29 | 11.3 | 11.3 | 0.00 | 0.00 | 0.00 | 35 | 1019.1 |
| 20260505011233 | 20 | 34 | 3.2 | 8.0 | 0.00 | 0.00 | 0.00 | 36 | 1019.1 |
| 20260505005731 | 20 | 24 | 12.9 | 19.3 | 0.00 | 0.00 | 0.00 | 37 | 1019.1 |
| 20260505004232 | 19 | 344 | 9.7 | 12.9 | 0.00 | 0.00 | 0.00 | 37 | 1019.0 |
| 20260505002733 | 19 | 356 | 4.8 | 12.9 | 0.00 | 0.00 | 0.00 | 39 | 1019.0 |
| 20260505001231 | 19 | 21 | 11.3 | 16.1 | 0.00 | 0.00 | 0.00 | 39 | 1019.0 |
| 20260504235731 | 18 | 2 | 4.8 | 11.3 | 0.00 | 0.00 | 0.00 | 40 | 1019.0 |
| 20260504234232 | 18 | 320 | 4.8 | 8.0 | 0.00 | 0.00 | 0.00 | 41 | 1019.1 |
| 20260504232731 | 17 | 334 | 8.0 | 12.9 | 0.00 | 0.00 | 0.00 | 43 | 1019.0 |
| 20260504231232 | 17 | 2 | 4.8 | 16.1 | 0.00 | 0.00 | 0.00 | 44 | 1019.1 |
| 20260504225732 | 17 | 349 | 8.0 | 9.7 | 0.00 | 0.00 | 0.00 | 45 | 1019.1 |
| 20260504224233 | 17 | 359 | 9.7 | 14.5 | 0.00 | 0.00 | 0.00 | 46 | 1018.8 |
| 20260504222732 | 16 | 336 | 11.3 | 20.9 | 0.00 | 0.00 | 0.00 | 47 | 1018.6 |
| 20260504221232 | 16 | 332 | 3.2 | 19.3 | 0.00 | 0.00 | 0.00 | 50 | 1018.5 |
| 20260504215732 | 15 | 353 | 8.0 | 11.3 | 0.00 | 0.00 | 0.00 | 52 | 1018.3 |
| 20260504214231 | 15 | 14 | 3.2 | 4.8 | 0.00 | 0.00 | 0.00 | 53 | 1018.1 |
| 20260504212732 | 14 | 340 | 1.6 | 4.8 | 0.00 | 0.00 | 0.00 | 54 | 1017.9 |
| 20260504211232 | 14 | 356 | 8.0 | 12.9 | 0.00 | 0.00 | 0.00 | 54 | 1017.7 |
| 20260504205733 | 14 | 323 | 8.0 | 9.7 | 0.00 | 0.00 | 0.00 | 54 | 1017.2 |
| 20260504204231 | 14 | 5 | 3.2 | 8.0 | 0.00 | 0.03 | 0.00 | 54 | 1016.9 |
| 20260504202732 | 14 | 335 | 1.6 | 4.8 | 0.00 | 0.03 | 0.00 | 55 | 1016.6 |
| 20260504201233 | 13 | 333 | 8.0 | 14.5 | 0.00 | 0.15 | 0.00 | 55 | 1016.2 |
| 20260504195731 | 13 | 2 | 4.8 | 9.7 | 0.00 | 0.28 | 0.00 | 55 | 1015.7 |
| 20260504194232 | 13 | 336 | 4.8 | 11.3 | 0.00 | 0.33 | 0.00 | 56 | 1015.3 |
| 20260504192733 | 13 | 333 | 9.7 | 14.5 | 0.00 | 0.33 | 0.00 | 57 | 1014.9 |
| 20260504191231 | 13 | 3 | 12.9 | 24.1 | 0.00 | 0.33 | 0.00 | 56 | 1014.6 |
| 20260504185732 | 13 | 1 | 4.8 | 8.0 | 0.00 | 0.33 | 0.00 | 57 | 1014.2 |
| 20260504184232 | 13 | 336 | 8.0 | 16.1 | 0.00 | 0.33 | 0.00 | 57 | 1014.1 |
| 20260504182731 | 14 | 354 | 9.7 | 14.5 | 0.00 | 0.36 | 0.00 | 56 | 1013.8 |
| 20260504181232 | 14 | 3 | 8.0 | 11.3 | 0.00 | 0.38 | 0.00 | 57 | 1013.4 |
| 20260504175733 | 14 | 341 | 11.3 | 19.3 | 0.00 | 0.43 | 0.00 | 57 | 1012.9 |
| 20260504174231 | 14 | 345 | 9.7 | 16.1 | 0.00 | 0.43 | 0.00 | 58 | 1012.5 |
| 20260504172732 | 14 | 6 | 9.7 | 12.9 | 0.00 | 0.43 | 0.00 | 57 | 1012.2 |
| 20260504171232 | 14 | 4 | 11.3 | 19.3 | 0.00 | 0.43 | 0.00 | 57 | 1011.7 |